Location: Bad Salzschlirf
(50.3750°N, 9.3000°E)
Time: 07:03:13
(UTC+01:00)

ISS - Pass Details

Date: 09 November 2018
Orbit: 401 x 409 km, 51.6° (Epoch: 21 November)

Event Time Altitude Azimuth Distance (km) Brightness Sun altitude
Exits shadow 05:15:07 69° 83° (E) 437 -3.6 -21.0°
Drops below altitude 10° 05:18:04 10° 101° (E) 1,464 0.2 -20.6°
Sets 05:20:09 0° 102° (ESE) 2,324 1.5 -20.2°
